SV2BZQ-2 Thessalonik GR current weather conditions

sailwx.info

Wind from 107 at 3 knots gusting 5

Air temperature 20.6° C
Dewpoint 15.3° C

Last reported at 2014-Oct-22 20:43 UTC.
Time now 2014-Oct-22 21:48 UTC

Location: N 40°41' E 022°51'.
View on Google Maps.

See reports from other nearby stations

  
Tides and Currents Weather Stations Pressure Air Temp Water Temp Dewpoint Dewpoint Depression Visibility Wind Speed Wind Dir Waves Ship Positions
date/time (UTC)wind fromknots sea level pressurealtimeterstation pressurevisibilityair tempwater tempwave heightnotes
2014-Oct-22 20:43 107 3 gusting 5 20.6
2014-Oct-22 20:36 098 3 gusting 8 20.6
2014-Oct-22 20:33 107 4 gusting 6 20.6
2014-Oct-22 20:23 118 5 gusting 8 20.6
2014-Oct-22 20:13 118 4 gusting 5 20.6
2014-Oct-22 20:05 072 4 gusting 8 20.0
2014-Oct-22 19:53 111 4 gusting 7 19.4
2014-Oct-22 19:43 120 1 gusting 3 18.9
2014-Oct-22 19:33 085 1 gusting 1 18.9
2014-Oct-22 19:23 085 18.9
2014-Oct-22 19:20 086 18.3
2014-Oct-22 19:13 082 0 gusting 1 18.9
2014-Oct-22 19:05 105 18.3
2014-Oct-22 18:53 121 18.9
2014-Oct-22 18:50 121 18.3
2014-Oct-22 18:43 121 18.9
2014-Oct-22 18:35 121 18.9
2014-Oct-22 18:23 121 1 gusting 2 18.9
2014-Oct-22 18:20 123 18.9
2014-Oct-22 18:13 061 2 gusting 2 18.9
2014-Oct-22 18:03 126 0 gusting 1 18.9
2014-Oct-22 17:53 126 0 gusting 1 19.4
2014-Oct-22 17:49 125 1 gusting 5 18.9
2014-Oct-22 17:43 124 1 gusting 3 19.4
2014-Oct-22 17:34 130 1 gusting 6 18.9
2014-Oct-22 17:23 127 0 gusting 1 19.4
2014-Oct-22 17:19 128 0 gusting 3 19.4
2014-Oct-22 17:13 128 0 gusting 3 19.4
2014-Oct-22 17:03 126 1 gusting 3 19.4
2014-Oct-22 16:53 146 1 gusting 2 19.4
2014-Oct-22 16:49 148 0 gusting 6 19.4
2014-Oct-22 16:43 155 1 gusting 3 19.4
2014-Oct-22 16:34 169 0 gusting 6 19.4
2014-Oct-22 16:23 158 2 gusting 5 19.4
2014-Oct-22 16:19 182 0 gusting 5 19.4
2014-Oct-22 16:13 185 2 gusting 3 19.4
2014-Oct-22 16:04 163 0 gusting 6 19.4
2014-Oct-22 15:53 165 2 gusting 6 20.0
2014-Oct-22 15:48 175 1 gusting 6 20.0
2014-Oct-22 15:43 170 1 gusting 5 20.0
2014-Oct-22 15:33 169 2 gusting 4 20.6
2014-Oct-22 15:23 156 4 gusting 6 20.6
2014-Oct-22 15:17 163 2 gusting 6 20.0
2014-Oct-22 15:13 142 3 gusting 6 20.6
2014-Oct-22 15:03 144 2 gusting 7 20.6
2014-Oct-22 14:53 181 0 gusting 3 21.1
2014-Oct-22 14:47 169 20.6
2014-Oct-22 14:43 182 0 gusting 3 21.1
2014-Oct-22 14:33 183 2 gusting 5 21.1
2014-Oct-22 14:23 169 3 gusting 6 21.1
2014-Oct-22 14:17 180 4 gusting 9 21.1
2014-Oct-22 14:13 197 4 gusting 5 21.7
2014-Oct-22 14:03 181 3 gusting 6 21.7
2014-Oct-22 13:53 199 1 gusting 4 21.7
2014-Oct-22 13:43 202 4 gusting 7 21.7
2014-Oct-22 13:33 205 3 gusting 5 21.7
2014-Oct-22 13:23 174 5 gusting 9 21.7
2014-Oct-22 13:16 223 4 gusting 8 21.7
2014-Oct-22 13:13 186 3 gusting 6 22.2
2014-Oct-22 13:03 196 2 gusting 6 22.2
2014-Oct-22 12:53 165 0 gusting 0 22.2
2014-Oct-22 12:46 203 2 gusting 8 21.7
2014-Oct-22 12:43 174 3 gusting 5 22.2
2014-Oct-22 12:33 188 1 gusting 5 22.2
2014-Oct-22 12:30 184 3 gusting 6 21.7
2014-Oct-22 12:23 167 4 gusting 6 22.2
2014-Oct-22 12:16 192 2 gusting 7 21.7
2014-Oct-22 12:13 145 3 gusting 7 22.2
2014-Oct-22 12:03 124 5 gusting 8 22.2
2014-Oct-22 12:00 112 3 gusting 9 22.2
2014-Oct-22 11:53 172 4 gusting 4 22.2
2014-Oct-22 11:45 137 1 gusting 6 21.7
2014-Oct-22 11:33 129 3 gusting 6 21.7
2014-Oct-22 11:29 152 4 gusting 9 21.7
2014-Oct-22 11:23 145 5 gusting 8 21.7
2014-Oct-22 11:14 144 3 gusting 6 21.7
2014-Oct-22 11:03 220 4 gusting 6 21.7
2014-Oct-22 11:00 217 3 gusting 6 21.7
2014-Oct-22 10:53 144 4 gusting 6 22.2
2014-Oct-22 10:44 160 21.1
2014-Oct-22 10:33 168 4 gusting 5 21.7
2014-Oct-22 10:29 210 1 gusting 7 21.7
2014-Oct-22 10:23 197 2 gusting 4 21.7
2014-Oct-22 10:14 184 2 gusting 4 21.1
2014-Oct-22 10:03 176 1 gusting 3 21.1
2014-Oct-22 09:59 169 0 gusting 6 20.6
2014-Oct-22 09:53 234 2 gusting 4 20.6
2014-Oct-22 09:43 198 1 gusting 6 20.6
2014-Oct-22 09:33 227 0 gusting 0 20.0
2014-Oct-22 09:28 226 20.0
2014-Oct-22 09:23 224 0 gusting 1 20.6
2014-Oct-22 09:13 231 20.0
2014-Oct-22 09:03 271 0 gusting 2 19.4
2014-Oct-22 08:59 271 19.4
2014-Oct-22 08:53 271 0 gusting 1 19.4
2014-Oct-22 08:43 265 1 gusting 5 19.4
2014-Oct-22 08:33 266 2 gusting 5 19.4
2014-Oct-22 08:27 267 19.4
2014-Oct-22 08:23 276 1 gusting 3 19.4
2014-Oct-22 08:13 295 18.9
2014-Oct-22 08:03 295 18.9
2014-Oct-22 07:58 295 0 gusting 2 18.3
2014-Oct-22 07:53 296 18.9
2014-Oct-22 07:43 298 18.9
2014-Oct-22 07:33 298 0 gusting 1 17.8
2014-Oct-22 07:23 297 16.7
2014-Oct-22 07:13 297 0 gusting 1 16.1
2014-Oct-22 07:03 297 15.6
2014-Oct-22 06:57 296 0 gusting 2 15.0
2014-Oct-22 06:53 297 0 gusting 1 15.6
2014-Oct-22 06:43 297 0 gusting 0 15.0
2014-Oct-22 06:33 297 15.0
2014-Oct-22 06:26 297 14.4
2014-Oct-22 06:23 297 14.4
2014-Oct-22 06:13 298 14.4
2014-Oct-22 06:03 297 13.9
2014-Oct-22 05:57 297 13.9
2014-Oct-22 05:53 297 13.9
2014-Oct-22 05:43 297 13.9
2014-Oct-22 05:40 297 13.3
2014-Oct-22 05:33 297 0 gusting 0 13.9
2014-Oct-22 05:26 296 13.3
2014-Oct-22 05:23 297 0 gusting 2 13.9
2014-Oct-22 05:13 297 0 gusting 3 13.9
2014-Oct-22 05:10 298 13.3
2014-Oct-22 05:03 298 13.9
2014-Oct-22 04:55 298 1 gusting 4 13.9
2014-Oct-22 04:43 294 1 gusting 2 14.4
2014-Oct-22 04:40 293 1 gusting 6 14.4
2014-Oct-22 04:33 063 15.0
2014-Oct-22 04:24 063 14.4
2014-Oct-22 04:13 065 1 gusting 5 15.0
2014-Oct-22 04:09 066 2 gusting 6 14.4
2014-Oct-22 04:03 064 2 gusting 6 14.4
2014-Oct-22 03:54 069 2 gusting 9 14.4
2014-Oct-22 03:43 083 3 gusting 4 14.4
2014-Oct-22 03:40 072 4 gusting 7 14.4
2014-Oct-22 03:33 075 4 gusting 6 14.4
2014-Oct-22 03:25 083 2 gusting 6 13.3
2014-Oct-22 03:13 276 13.3
2014-Oct-22 03:09 276 0 gusting 3 13.3
2014-Oct-22 03:03 276 0 gusting 1 13.3
2014-Oct-22 02:54 276 1 gusting 5 13.3
2014-Oct-22 02:43 300 13.3
2014-Oct-22 02:38 301 0 gusting 3 13.3
2014-Oct-22 02:33 302 0 gusting 2 13.9
2014-Oct-22 02:23 302 13.9
2014-Oct-22 02:13 302 13.9
2014-Oct-22 02:08 302 13.9
2014-Oct-22 02:03 302 13.9
2014-Oct-22 01:53 302 0 gusting 1 13.9
2014-Oct-22 01:43 299 2 gusting 4 13.9
2014-Oct-22 01:38 300 1 gusting 4 13.9
2014-Oct-22 01:33 310 2 gusting 3 13.9
2014-Oct-22 01:23 311 1 gusting 2 13.9
2014-Oct-22 01:13 312 3 gusting 4 13.3
2014-Oct-22 01:03 294 2 gusting 3 13.3
2014-Oct-22 00:53 297 4 gusting 6 13.3
2014-Oct-22 00:43 301 3 gusting 6 13.3
2014-Oct-22 00:37 296 1 gusting 3 12.8
2014-Oct-22 00:33 295 2 gusting 3 12.8
2014-Oct-22 00:23 301 2 gusting 3 12.8
2014-Oct-22 00:13 300 1 gusting 2 12.8
2014-Oct-22 00:07 300 1 gusting 4 12.8
2014-Oct-22 00:03 298 2 gusting 3 12.8
2014-Oct-21 23:53 289 2 gusting 3 13.3
2014-Oct-21 23:43 294 0 gusting 1 13.3
2014-Oct-21 23:36 294 0 gusting 3 12.8
2014-Oct-21 23:33 294 13.3
2014-Oct-21 23:23 293 2 gusting 4 13.3
2014-Oct-21 23:13 286 1 gusting 2 13.3
2014-Oct-21 23:06 284 0 gusting 3 13.3
2014-Oct-21 23:03 284 1 gusting 3 13.9
2014-Oct-21 22:53 284 13.9
2014-Oct-21 22:43 281 1 gusting 2 13.9
2014-Oct-21 22:36 279 13.9
2014-Oct-21 22:33 279 0 gusting 2 13.9
2014-Oct-21 22:23 279 14.4
2014-Oct-21 22:13 279 14.4
2014-Oct-21 22:05 279 14.4
2014-Oct-21 21:53 280 14.4
2014-Oct-21 21:50 280 14.4
2014-Oct-21 21:43 280 15.0
2014-Oct-21 21:33 284 1 gusting 2 15.0
2014-Oct-21 21:23 277 0 gusting 2 15.0
2014-Oct-21 21:20 277 1 gusting 3 15.0
2014-Oct-21 21:13 273 1 gusting 3 15.6
2014-Oct-21 21:05 247 15.6
2014-Oct-21 20:53 184 16.1
2014-Oct-21 20:50 184 16.1
2014-Oct-21 20:34 183 16.1
2014-Oct-21 20:23 184 16.7
2014-Oct-21 20:19 184 16.1
2014-Oct-21 20:13 184 16.7
2014-Oct-21 20:04 184 16.1
2014-Oct-21 19:53 184 16.7
2014-Oct-21 19:49 183 16.7
2014-Oct-21 19:43 184 16.7
2014-Oct-21 19:34 184 16.7
2014-Oct-21 19:23 184 16.7
2014-Oct-21 19:18 183 16.7
2014-Oct-21 19:13 184 17.2
2014-Oct-21 19:03 184 17.2
2014-Oct-21 18:53 187 1 gusting 2 17.2
2014-Oct-21 18:43 192 17.8
2014-Oct-21 18:33 192 17.8
2014-Oct-21 18:23 192 17.8
2014-Oct-21 18:18 192 17.8
2014-Oct-21 18:13 192 17.8
2014-Oct-21 18:04 192 17.8
2014-Oct-21 17:53 192 18.3
2014-Oct-21 17:47 192 17.8
2014-Oct-21 17:43 192 18.3
2014-Oct-21 17:33 192 18.3
2014-Oct-21 17:23 192 18.3
2014-Oct-21 17:17 192 18.3
2014-Oct-21 17:13 192 18.3
2014-Oct-21 17:03 192 18.9
2014-Oct-21 16:53 192 18.9
2014-Oct-21 16:47 192 18.9
2014-Oct-21 16:43 192 19.4
2014-Oct-21 16:33 192 19.4
2014-Oct-21 16:23 192 19.4
2014-Oct-21 16:17 192 19.4
2014-Oct-21 16:13 192 20.0
2014-Oct-21 16:03 192 20.0
2014-Oct-21 15:53 192 20.6
2014-Oct-21 15:46 192 20.0
2014-Oct-21 15:43 192 20.6
2014-Oct-21 15:33 192 20.6
2014-Oct-21 15:23 192 0 gusting 2 21.1
2014-Oct-21 15:16 194 21.1
2014-Oct-21 15:13 193 21.1
2014-Oct-21 15:03 191 1 gusting 4 21.1
2014-Oct-21 14:53 190 0 gusting 2 21.1
2014-Oct-21 14:33 167 0 gusting 4 21.7
2014-Oct-21 14:30 166 1 gusting 6 21.7
2014-Oct-21 14:23 179 0 gusting 4 22.2
2014-Oct-21 14:15 169 0 gusting 5 21.7
2014-Oct-21 14:03 167 22.2
2014-Oct-21 14:00 167 22.2
2014-Oct-21 13:33 173 2 gusting 4 22.8
2014-Oct-21 13:30 209 22.2
2014-Oct-21 13:23 161 2 gusting 3 22.8
2014-Oct-21 13:15 168 2 gusting 6 22.2
2014-Oct-21 13:03 149 1 gusting 6 22.8
2014-Oct-21 13:00 163 2 gusting 8 22.2
2014-Oct-21 12:53 165 1 gusting 4 22.8
2014-Oct-21 12:43 185 2 gusting 5 23.3
2014-Oct-21 12:33 166 0 gusting 5 22.8
2014-Oct-21 12:29 146 1 gusting 8 22.8
2014-Oct-21 12:23 153 4 gusting 7 23.3
2014-Oct-21 12:15 161 2 gusting 6 22.8
2014-Oct-21 12:03 176 2 gusting 6 23.9
2014-Oct-21 11:59 160 1 gusting 6 23.3
2014-Oct-21 11:53 147 2 gusting 5 23.3
2014-Oct-21 11:43 152 2 gusting 4 23.3
2014-Oct-21 11:33 178 1 gusting 3 23.3
2014-Oct-21 11:28 153 0 gusting 5 22.8
2014-Oct-21 11:23 121 2 gusting 3 23.3
2014-Oct-21 11:13 150 2 gusting 4 22.8
2014-Oct-21 11:03 167 0 gusting 3 22.8
2014-Oct-21 10:59 178 22.8
2014-Oct-21 10:53 184 0 gusting 2 23.3
2014-Oct-21 10:43 189 22.2
2014-Oct-21 10:33 221 22.2
2014-Oct-21 10:28 221 0 gusting 5 22.2
2014-Oct-21 10:23 232 22.2
2014-Oct-21 10:13 277 0 gusting 2 22.2
2014-Oct-21 10:03 279 0 gusting 0 21.7
2014-Oct-21 09:57 278 21.7
2014-Oct-21 09:53 277 21.1
2014-Oct-21 09:43 279 0 gusting 2 21.1
2014-Oct-21 09:33 278 0 20.6
2014-Oct-21 09:27 279 20.0
2014-Oct-21 09:23 275 0 gusting 3 20.6
2014-Oct-21 09:13 273 1 gusting 1 20.6
2014-Oct-21 09:03 273 0 gusting 1 20.0
2014-Oct-21 08:56 272 19.4
2014-Oct-21 08:53 273 0 gusting 0 20.0
2014-Oct-21 08:43 277 19.4
2014-Oct-21 08:33 278 0 gusting 1 19.4
2014-Oct-21 08:26 278 0 gusting 2 18.9
2014-Oct-21 08:23 279 18.9
2014-Oct-21 08:13 299 18.3
2014-Oct-21 08:03 299 0 gusting 0 18.3
2014-Oct-21 07:53 300 17.8
2014-Oct-21 07:43 301 17.2
2014-Oct-21 07:33 301 16.7
2014-Oct-21 07:25 301 15.6
2014-Oct-21 07:13 301 0 gusting 1 15.0
2014-Oct-21 07:10 301 14.4
2014-Oct-21 07:03 302 0 gusting 1 13.9
2014-Oct-21 06:55 302 0 gusting 2 13.3
2014-Oct-21 06:43 303 0 gusting 1 12.8
2014-Oct-21 06:40 303 12.2
2014-Oct-21 06:33 303 12.2
2014-Oct-21 06:24 303 11.7
2014-Oct-21 06:13 303 11.1
2014-Oct-21 06:10 303 11.1
2014-Oct-21 06:03 303 11.1
2014-Oct-21 05:54 303 0 gusting 2 10.6
2014-Oct-21 05:43 303 1 gusting 2 10.6
2014-Oct-21 05:39 302 10.0
2014-Oct-21 05:33 303 2 gusting 2 10.6
2014-Oct-21 05:24 301 0 gusting 3 10.0
2014-Oct-21 05:13 301 1 gusting 2 10.6
2014-Oct-21 05:09 300 1 gusting 2 10.0
2014-Oct-21 05:03 301 1 gusting 2 10.6
2014-Oct-21 04:53 301 0 gusting 3 10.6
2014-Oct-21 04:43 301 10.6
2014-Oct-21 04:38 300 0 gusting 2 10.0
2014-Oct-21 04:33 301 0 gusting 2 10.6
2014-Oct-21 04:24 301 10.0
2014-Oct-21 04:13 301 0 gusting 1 10.6
2014-Oct-21 04:03 302 0 gusting 2 10.6
2014-Oct-21 03:53 302 10.6
2014-Oct-21 03:43 301 1 gusting 3 10.6
2014-Oct-21 03:37 302 1 gusting 3 10.6
2014-Oct-21 03:33 303 0 gusting 1 11.1
2014-Oct-21 03:23 304 1 gusting 2 11.1
2014-Oct-21 03:13 303 11.1
2014-Oct-21 03:07 304 1 gusting 3 10.6
2014-Oct-21 03:03 304 1 gusting 3 11.1
2014-Oct-21 02:53 304 1 gusting 2 11.1
2014-Oct-21 02:43 304 2 gusting 4 11.1
2014-Oct-21 02:37 310 2 gusting 4 10.6
2014-Oct-21 02:33 313 0 gusting 2 11.1
2014-Oct-21 02:23 315 1 gusting 2 11.1
2014-Oct-21 02:13 315 1 gusting 2 11.1
2014-Oct-21 02:03 315 11.1
2014-Oct-21 01:53 311 2 gusting 3 11.1
2014-Oct-21 01:43 303 1 gusting 3 11.1
2014-Oct-21 01:36 303 2 gusting 4 11.1
2014-Oct-21 01:33 302 1 gusting 2 11.1
2014-Oct-21 01:23 301 1 gusting 3 11.1
2014-Oct-21 01:13 301 2 gusting 3 11.1
2014-Oct-21 01:06 299 2 gusting 4 11.1
2014-Oct-21 01:03 300 1 gusting 3 11.7
2014-Oct-21 00:53 300 2 gusting 3 11.7
2014-Oct-21 00:43 292 1 gusting 2 11.7
2014-Oct-21 00:35 291 2 gusting 4 11.1
2014-Oct-21 00:23 284 2 gusting 3 11.7
2014-Oct-21 00:13 278 1 gusting 3 11.7
2014-Oct-21 00:03 265 1 gusting 5 11.7
2014-Oct-20 23:53 248 12.2
2014-Oct-20 23:50 248 11.7
2014-Oct-20 23:43 248 2 gusting 3 12.2
2014-Oct-20 23:35 248 1 gusting 3 12.2
2014-Oct-20 23:23 211 0 gusting 3 12.8
2014-Oct-20 23:19 206 12.2
2014-Oct-20 23:13 206 12.8
2014-Oct-20 23:05 205 1 gusting 3 12.2
2014-Oct-20 22:53 176 13.3
2014-Oct-20 22:50 176 12.8
2014-Oct-20 22:43 175 13.3
2014-Oct-20 22:33 175 13.9
2014-Oct-20 22:23 174 13.9
2014-Oct-20 22:20 174 13.9
2014-Oct-20 22:13 174 14.4
2014-Oct-20 22:04 174 14.4
2014-Oct-20 21:53 174 14.4
2014-Oct-20 21:48 174 14.4
2014-Oct-20 21:43 174 15.0
2014-Oct-20 21:33 174 15.0
2014-Oct-20 21:23 174 15.0
2014-Oct-20 21:19 173 14.4
2014-Oct-20 21:13 174 15.0
2014-Oct-20 21:03 174 15.0